Flag for U.S.A. Weather past 2 weeks in Chicago, Illinois, U.S.A.

Now
66 °F

Mostly cloudy.


Feels Like: 66 °F
Forecast: 48 / 57 °F
Wind: 10 mph from East

Location: Chicago Midway Airport

Current Time: Apr 19, 2015 at 2:44:44 PM

Latest Report: Apr 19, 2015 at 1:53 PM


Visibility: 10 mi

Pressure: 29.61 "Hg

Humidity: 40%

Dew point: 41 °F

Location of ChicagoLocation

Historic Weather in Chicago — Graph

°F

Chicago temperature yesterday

Maximum temperature yesterday: 66 °F (at 7:53 AM)
Minimum temperature yesterday: 50 °F (at 8:53 PM)
Average temperature yesterday: 59 °F

Past Weeks' High & Low Weather Summary

 TemperatureHumidityPressure
High78 °F (Apr 17, 12:53 PM)100% (Apr 8, 7:53 AM)30.28 "Hg (Apr 8, 7:53 AM)
Low40 °F (Apr 11, 3:53 AM)14% (Apr 14, 5:53 PM)29.43 "Hg (Apr 9, 8:53 PM)
Average56 °F55%30.03 "Hg
* Reported Apr 4 12:53 PM — Apr 19 12:53 PM, Chicago, Weather by CustomWeather, © 2015

Note: Actual official high and low records may vary slightly from our data, if they occured in-between our weather recording intervals... More about our weather records

Advertising

Chicago weather history for previous 24 hours

 ConditionsComfort  
Time TempWeatherWind HumidityBarometerVisibility
12:53 PM
Sun, Apr 19
68 °FPartly sunny.12 mph36%29.65 "Hg10 mi
11:53 AM67 °FBroken clouds.12 mph37%29.69 "Hg10 mi
10:53 AM65 °FBroken clouds.12 mph39%29.73 "Hg10 mi
9:53 AM61 °FBroken clouds.13 mph41%29.77 "Hg10 mi
8:53 AM59 °FBroken clouds.12 mph42%29.80 "Hg10 mi
7:53 AM57 °FBroken clouds.13 mph44%29.84 "Hg10 mi
6:53 AM55 °FPartly cloudy.8 mph45%29.85 "Hg10 mi
5:53 AM55 °FPassing clouds.9 mph47%29.87 "Hg10 mi
4:53 AM56 °FPartly cloudy.7 mph42%29.88 "Hg10 mi
3:53 AM56 °FPartly cloudy.8 mph37%29.89 "Hg10 mi
2:53 AM57 °FPartly cloudy.7 mph33%29.90 "Hg10 mi
1:53 AM55 °FPartly cloudy.6 mph42%29.93 "Hg10 mi
12:53 AM55 °FPassing clouds.9 mph49%29.95 "Hg10 mi
11:53 PM
Sat, Apr 18
56 °FMostly cloudy.12 mph51%29.96 "Hg10 mi
10:53 PM52 °FOvercast.3 mph57%29.99 "Hg10 mi
9:53 PM51 °FMostly cloudy.10 mph54%30.01 "Hg10 mi
8:53 PM50 °FMostly cloudy.10 mph54%30.02 "Hg10 mi
7:53 PM51 °FBroken clouds.13 mph50%30.01 "Hg10 mi
6:53 PM53 °FBroken clouds.13 mph48%30.00 "Hg10 mi
5:53 PM56 °FBroken clouds.10 mph47%30.03 "Hg10 mi
4:53 PM56 °FBroken clouds.10 mph49%30.02 "Hg10 mi
3:53 PM57 °FPartly sunny.15 mph49%30.03 "Hg10 mi
2:53 PM59 °FPartly sunny.14 mph46%30.04 "Hg10 mi
Weather by CustomWeather, © 2015

See weather overviewHow to use our weather pages